YRARK LRTR-LRDV

Flight info

Callsign YRARK
Flight time 1h 14m
Altitude 3000
Route VFR RWY 29 RIGHT HAND TRAFFIC PATTERN // DEPARTURE TO LRDV
Aircraft C172/L-SFG/C

Departure

Time 2026-04-14 13:51
Airport Timișoara Traian Vuia International Airport (LRTR)

Arrival

Time 2026-04-14 15:05
Airport Săulești Airfield (LRDV)
Time Latitude Longitude Altitude Speed Heading
2026-04-14 13:28 45.81184 21.32124 347 ft 0 kts 21°
2026-04-14 13:44 45.81190 21.32128 350 ft 0 kts 46°
2026-04-14 13:44 45.81152 21.32185 347 ft 14 kts 117°
2026-04-14 13:45 45.81112 21.32332 354 ft 17 kts 109°
2026-04-14 13:45 45.81090 21.32518 347 ft 21 kts 91°
2026-04-14 13:45 45.81039 21.32721 349 ft 23 kts 110°
2026-04-14 13:45 45.81002 21.32867 347 ft 24 kts 107°
2026-04-14 13:46 45.80927 21.33180 347 ft 26 kts 110°
2026-04-14 13:46 45.80886 21.33347 347 ft 27 kts 108°
2026-04-14 13:46 45.80938 21.33551 355 ft 23 kts 19°
2026-04-14 13:46 45.81027 21.33589 347 ft 4 kts 344°
2026-04-14 13:47 45.81040 21.33558 347 ft 3 kts 287°
2026-04-14 13:47 45.81043 21.33541 351 ft 1 kts 290°
2026-04-14 13:47 45.81043 21.33540 350 ft 0 kts 295°
2026-04-14 13:49 45.81046 21.33529 351 ft 3 kts 292°
2026-04-14 13:49 45.81061 21.33476 349 ft 9 kts 290°
2026-04-14 13:49 45.81142 21.33157 349 ft 58 kts 289°
2026-04-14 13:50 45.81300 21.32529 425 ft 70 kts 284°
2026-04-14 13:50 45.81491 21.31765 428 ft 89 kts 286°
2026-04-14 13:50 45.81708 21.30862 543 ft 101 kts 284°
2026-04-14 13:50 45.82078 21.29961 718 ft 109 kts 300°
2026-04-14 13:51 45.82461 21.29035 901 ft 112 kts 298°
2026-04-14 13:51 45.82830 21.28020 1078 ft 115 kts 295°
2026-04-14 13:51 45.83228 21.27023 1260 ft 116 kts 296°
2026-04-14 13:51 45.83636 21.26004 1432 ft 121 kts 305°
2026-04-14 13:52 45.84387 21.25591 1614 ft 120 kts 14°
2026-04-14 13:52 45.85189 21.25864 1796 ft 117 kts 14°
2026-04-14 13:52 45.85967 21.26113 1968 ft 114 kts 15°
2026-04-14 13:52 45.86746 21.26355 2151 ft 116 kts 16°
2026-04-14 13:53 45.87500 21.26701 2326 ft 113 kts 44°
2026-04-14 13:53 45.87682 21.27661 2509 ft 101 kts 111°
2026-04-14 13:53 45.87491 21.28626 2696 ft 100 kts 110°
2026-04-14 13:53 45.87305 21.29565 2871 ft 99 kts 111°
2026-04-14 13:54 45.87107 21.30514 3049 ft 99 kts 111°
2026-04-14 13:54 45.86901 21.31502 3098 ft 109 kts 111°
2026-04-14 13:54 45.86669 21.32571 3115 ft 116 kts 111°
2026-04-14 13:54 45.86431 21.33701 3110 ft 120 kts 111°
2026-04-14 13:55 45.86191 21.34828 3112 ft 116 kts 111°
2026-04-14 13:55 45.85961 21.35902 3095 ft 111 kts 110°
2026-04-14 13:55 45.85715 21.36953 3095 ft 111 kts 111°
2026-04-14 13:55 45.85457 21.38003 3095 ft 112 kts 111°
2026-04-14 13:56 45.85197 21.39057 3092 ft 112 kts 110°
2026-04-14 13:56 45.84936 21.40096 3094 ft 112 kts 111°
2026-04-14 13:56 45.84671 21.41154 3098 ft 113 kts 111°
2026-04-14 13:56 45.84406 21.42230 3098 ft 115 kts 111°
2026-04-14 13:57 45.84143 21.43305 3104 ft 114 kts 111°
2026-04-14 13:57 45.83866 21.44383 3101 ft 115 kts 120°
2026-04-14 13:57 45.83198 21.44887 3105 ft 116 kts 186°
2026-04-14 13:57 45.82416 21.44566 3117 ft 117 kts 195°
2026-04-14 13:58 45.81626 21.44215 3041 ft 123 kts 196°
2026-04-14 13:58 45.80800 21.43850 3012 ft 117 kts 196°
2026-04-14 13:58 45.80059 21.43524 3129 ft 111 kts 196°
2026-04-14 13:58 45.79288 21.43180 3031 ft 120 kts 196°
2026-04-14 13:59 45.78481 21.42822 2923 ft 119 kts 198°
2026-04-14 13:59 45.77969 21.42001 2787 ft 115 kts 261°
2026-04-14 13:59 45.78227 21.40918 2478 ft 123 kts 306°
2026-04-14 13:59 45.78744 21.40070 1981 ft 107 kts 313°
2026-04-14 14:00 45.79222 21.39247 1439 ft 106 kts 307°
2026-04-14 14:00 45.79624 21.38446 1020 ft 92 kts 302°
2026-04-14 14:00 45.79975 21.37663 660 ft 94 kts 292°
2026-04-14 14:00 45.80219 21.36831 491 ft 87 kts 286°
2026-04-14 14:01 45.80411 21.36063 405 ft 80 kts 284°
2026-04-14 14:01 45.80586 21.35365 352 ft 61 kts 285°
2026-04-14 14:01 45.80697 21.34913 352 ft 45 kts 291°
2026-04-14 14:01 45.80839 21.34354 347 ft 69 kts 302°
2026-04-14 14:02 45.81011 21.33677 376 ft 80 kts 284°
2026-04-14 14:02 45.81236 21.32825 446 ft 100 kts 285°
2026-04-14 14:02 45.81511 21.31891 623 ft 104 kts 289°
2026-04-14 14:02 45.81805 21.30913 758 ft 110 kts 297°
2026-04-14 14:03 45.82205 21.29946 893 ft 114 kts 295°
2026-04-14 14:03 45.82600 21.28943 1028 ft 118 kts 296°
2026-04-14 14:03 45.83008 21.27862 1096 ft 128 kts 295°
2026-04-14 14:03 45.83449 21.26752 1101 ft 131 kts 296°
2026-04-14 14:04 45.83902 21.25593 1149 ft 131 kts 296°
2026-04-14 14:04 45.84346 21.24471 1314 ft 125 kts 296°
2026-04-14 14:04 45.84953 21.23675 1542 ft 119 kts 352°
2026-04-14 14:04 45.85718 21.23889 1806 ft 112 kts 20°
2026-04-14 14:05 45.86455 21.24185 2055 ft 106 kts 21°
2026-04-14 14:05 45.87143 21.24487 2289 ft 101 kts 21°
2026-04-14 14:05 45.87799 21.24766 2524 ft 97 kts 20°
2026-04-14 14:05 45.88435 21.25036 2777 ft 96 kts 20°
2026-04-14 14:06 45.88983 21.25475 3015 ft 87 kts 75°
2026-04-14 14:06 45.88852 21.26277 3164 ft 91 kts 115°
2026-04-14 14:06 45.88594 21.27216 3114 ft 106 kts 116°
2026-04-14 14:06 45.88315 21.28193 3106 ft 107 kts 116°
2026-04-14 14:07 45.88032 21.29179 3113 ft 107 kts 116°
2026-04-14 14:07 45.87746 21.30173 3109 ft 108 kts 116°
2026-04-14 14:07 45.87457 21.31169 3117 ft 109 kts 116°
2026-04-14 14:07 45.87168 21.32187 3116 ft 111 kts 116°
2026-04-14 14:08 45.86877 21.33214 3108 ft 111 kts 116°
2026-04-14 14:08 45.86583 21.34221 3098 ft 108 kts 116°
2026-04-14 14:08 45.86301 21.35203 3096 ft 106 kts 116°
2026-04-14 14:08 45.86014 21.36161 3093 ft 107 kts 116°
2026-04-14 14:09 45.85701 21.37138 3095 ft 108 kts 116°
2026-04-14 14:09 45.85386 21.38119 3100 ft 108 kts 116°
2026-04-14 14:09 45.85066 21.39107 3099 ft 109 kts 116°
2026-04-14 14:09 45.84749 21.40087 3104 ft 108 kts 116°
2026-04-14 14:10 45.84433 21.41069 3109 ft 109 kts 116°
2026-04-14 14:10 45.84110 21.42064 3103 ft 111 kts 116°
2026-04-14 14:10 45.83785 21.43075 3104 ft 111 kts 116°
2026-04-14 14:10 45.83457 21.44091 3084 ft 113 kts 115°
2026-04-14 14:11 45.82972 21.44257 2759 ft 120 kts 325°
2026-04-14 14:11 45.83372 21.44099 1411 ft 127 kts 266°
2026-04-14 14:11 45.82882 21.43532 1495 ft 108 kts 189°
2026-04-14 14:11 45.82121 21.43156 1341 ft 121 kts 200°
2026-04-14 14:12 45.81353 21.42822 1389 ft 115 kts 198°
2026-04-14 14:12 45.80634 21.42408 1475 ft 109 kts 195°
2026-04-14 14:12 45.79920 21.42035 1449 ft 116 kts 195°
2026-04-14 14:12 45.79119 21.41617 1242 ft 125 kts 209°
2026-04-14 14:13 45.78904 21.40642 1251 ft 108 kts 293°
2026-04-14 14:13 45.79341 21.39663 881 ft 117 kts 292°
2026-04-14 14:13 45.79690 21.38645 725 ft 108 kts 288°
2026-04-14 14:13 45.79975 21.37743 655 ft 89 kts 285°
2026-04-14 14:14 45.80191 21.36960 525 ft 82 kts 283°
2026-04-14 14:14 45.80381 21.36199 429 ft 81 kts 281°
2026-04-14 14:14 45.80567 21.35454 355 ft 67 kts 280°
2026-04-14 14:14 45.80675 21.34988 351 ft 37 kts 289°
2026-04-14 14:15 45.80788 21.34563 349 ft 63 kts 289°
2026-04-14 14:15 45.80971 21.33840 399 ft 87 kts 286°
2026-04-14 14:15 45.81195 21.32969 513 ft 97 kts 287°
2026-04-14 14:15 45.81439 21.32041 669 ft 99 kts 286°
2026-04-14 14:16 45.81691 21.31127 865 ft 99 kts 288°
2026-04-14 14:16 45.81933 21.30234 1120 ft 93 kts 285°
2026-04-14 14:16 45.82151 21.29349 1269 ft 96 kts 284°
2026-04-14 14:17 45.83017 21.28478 1527 ft 99 kts 24°
2026-04-14 14:17 45.83653 21.28822 1681 ft 99 kts 25°
2026-04-14 14:17 45.84293 21.29149 1833 ft 98 kts 21°
2026-04-14 14:17 45.84718 21.29713 2010 ft 78 kts 105°
2026-04-14 14:18 45.84535 21.30507 2079 ft 83 kts 115°
2026-04-14 14:18 45.84326 21.31285 2222 ft 86 kts 115°
2026-04-14 14:18 45.84102 21.32087 2346 ft 87 kts 114°
2026-04-14 14:18 45.83871 21.32878 2462 ft 88 kts 118°
2026-04-14 14:19 45.83645 21.33710 2580 ft 89 kts 114°
2026-04-14 14:19 45.83399 21.34539 2676 ft 90 kts 115°
2026-04-14 14:19 45.83151 21.35356 2790 ft 90 kts 113°
2026-04-14 14:19 45.82956 21.36197 2890 ft 89 kts 112°
2026-04-14 14:20 45.82768 21.37032 3008 ft 88 kts 114°
2026-04-14 14:20 45.82556 21.37829 3099 ft 86 kts 110°
2026-04-14 14:20 45.82352 21.38680 3109 ft 94 kts 103°
2026-04-14 14:20 45.82145 21.39601 3109 ft 100 kts 114°
2026-04-14 14:21 45.81854 21.40508 3135 ft 100 kts 117°
2026-04-14 14:21 45.81504 21.41369 3172 ft 100 kts 129°
2026-04-14 14:21 45.81100 21.42175 3194 ft 100 kts 121°
2026-04-14 14:21 45.80807 21.43084 3199 ft 100 kts 121°
2026-04-14 14:22 45.80495 21.43947 3263 ft 96 kts 110°
2026-04-14 14:22 45.80453 21.44910 3266 ft 99 kts 85°
2026-04-14 14:22 45.80592 21.45863 3288 ft 102 kts 72°
2026-04-14 14:22 45.81027 21.46685 3277 ft 105 kts 42°
2026-04-14 14:23 45.81470 21.47463 3352 ft 98 kts 81°
2026-04-14 14:23 45.81214 21.48293 3458 ft 93 kts 128°
2026-04-14 14:23 45.81041 21.49157 3549 ft 92 kts 90°
2026-04-14 14:23 45.81043 21.50065 3648 ft 94 kts 91°
2026-04-14 14:24 45.81051 21.51055 3741 ft 103 kts 91°
2026-04-14 14:24 45.81065 21.52107 3847 ft 108 kts 89°
2026-04-14 14:24 45.81109 21.53188 3951 ft 110 kts 89°
2026-04-14 14:24 45.81155 21.54287 4051 ft 110 kts 89°
2026-04-14 14:25 45.81204 21.55373 4151 ft 111 kts 89°
2026-04-14 14:25 45.81252 21.56479 4246 ft 111 kts 89°
2026-04-14 14:25 45.81302 21.57597 4346 ft 113 kts 89°
2026-04-14 14:25 45.81352 21.58717 4445 ft 112 kts 89°
2026-04-14 14:26 45.81399 21.59825 4549 ft 111 kts 89°
2026-04-14 14:26 45.81449 21.60934 4652 ft 111 kts 89°
2026-04-14 14:26 45.81498 21.62042 4756 ft 111 kts 89°
2026-04-14 14:26 45.81546 21.63132 4856 ft 111 kts 89°
2026-04-14 14:27 45.81595 21.64238 4953 ft 111 kts 89°
2026-04-14 14:27 45.81642 21.65337 5052 ft 110 kts 89°
2026-04-14 14:27 45.81690 21.66455 5085 ft 116 kts 89°
2026-04-14 14:27 45.81742 21.67636 5089 ft 120 kts 89°
2026-04-14 14:28 45.81794 21.68844 5092 ft 122 kts 89°
2026-04-14 14:28 45.81847 21.70051 5091 ft 121 kts 89°
2026-04-14 14:28 45.81900 21.71262 5092 ft 122 kts 89°
2026-04-14 14:28 45.81952 21.72478 5091 ft 122 kts 89°
2026-04-14 14:29 45.82005 21.73689 5089 ft 122 kts 89°
2026-04-14 14:29 45.82057 21.74905 5084 ft 123 kts 89°
2026-04-14 14:29 45.82108 21.76124 5080 ft 119 kts 90°
2026-04-14 14:29 45.82158 21.77291 5077 ft 113 kts 90°
2026-04-14 14:30 45.82207 21.78402 5075 ft 111 kts 90°
2026-04-14 14:30 45.82255 21.79517 5086 ft 115 kts 90°
2026-04-14 14:30 45.82304 21.80691 5095 ft 121 kts 90°
2026-04-14 14:30 45.82352 21.81862 5085 ft 115 kts 90°
2026-04-14 14:31 45.82402 21.82976 5080 ft 109 kts 91°
2026-04-14 14:31 45.82447 21.84039 5081 ft 104 kts 89°
2026-04-14 14:31 45.82534 21.85075 5060 ft 101 kts 85°
2026-04-14 14:31 45.82614 21.86062 5050 ft 101 kts 90°
2026-04-14 14:32 45.82629 21.87090 4987 ft 105 kts 91°
2026-04-14 14:32 45.82658 21.88172 5033 ft 110 kts 90°
2026-04-14 14:32 45.82475 21.89204 5128 ft 110 kts 112°
2026-04-14 14:32 45.82312 21.89912 5151 ft 113 kts 111°
2026-04-14 14:33 45.82082 21.90996 5213 ft 115 kts 107°
2026-04-14 14:33 45.81874 21.92311 5274 ft 71 kts 105°
2026-04-14 14:33 45.81800 21.92848 5099 ft 45 kts 95°
2026-04-14 14:33 45.81943 21.92534 4046 ft 77 kts 302°
2026-04-14 14:34 45.82306 21.91969 3020 ft 68 kts 117°
2026-04-14 14:34 45.82248 21.92758 2838 ft 65 kts 93°
2026-04-14 14:34 45.82304 21.93428 2920 ft 64 kts 91°
2026-04-14 14:35 45.82355 21.94188 2875 ft 95 kts 86°
2026-04-14 14:35 45.82498 21.95188 2951 ft 107 kts 81°
2026-04-14 14:35 45.82599 21.96358 2466 ft 134 kts 86°
2026-04-14 14:35 45.82780 21.97500 2875 ft 104 kts 76°
2026-04-14 14:36 45.82916 21.98541 2899 ft 115 kts 101°
2026-04-14 14:36 45.82814 21.99697 3025 ft 111 kts 100°
2026-04-14 14:36 45.82784 22.00766 3202 ft 109 kts 88°
2026-04-14 14:36 45.82897 22.01879 3296 ft 113 kts 82°
2026-04-14 14:37 45.83075 22.02944 3489 ft 110 kts 79°
2026-04-14 14:37 45.83189 22.04027 3630 ft 108 kts 85°
2026-04-14 14:37 45.83274 22.05083 3790 ft 107 kts 88°
2026-04-14 14:37 45.83339 22.06146 3926 ft 106 kts 89°
2026-04-14 14:38 45.83390 22.07197 4080 ft 106 kts 90°
2026-04-14 14:38 45.83437 22.08250 4229 ft 105 kts 89°
2026-04-14 14:38 45.83482 22.09295 4378 ft 105 kts 88°
2026-04-14 14:38 45.83525 22.10338 4531 ft 105 kts 88°
2026-04-14 14:39 45.83567 22.11382 4686 ft 104 kts 88°
2026-04-14 14:39 45.83609 22.12422 4839 ft 105 kts 88°
2026-04-14 14:39 45.83650 22.13463 4990 ft 104 kts 89°
2026-04-14 14:39 45.83691 22.14515 5079 ft 110 kts 89°
2026-04-14 14:40 45.83733 22.15637 5096 ft 117 kts 89°
2026-04-14 14:40 45.83781 22.16826 5097 ft 121 kts 88°
2026-04-14 14:40 45.83828 22.18045 5095 ft 123 kts 89°
2026-04-14 14:40 45.83877 22.19275 5095 ft 124 kts 87°
2026-04-14 14:41 45.83925 22.20511 5096 ft 124 kts 87°
2026-04-14 14:41 45.83973 22.21750 5096 ft 125 kts 87°
2026-04-14 14:41 45.84021 22.22990 5095 ft 124 kts 87°
2026-04-14 14:41 45.84069 22.24230 5096 ft 125 kts 88°
2026-04-14 14:42 45.84116 22.25458 5095 ft 124 kts 88°
2026-04-14 14:42 45.84164 22.26698 5096 ft 124 kts 88°
2026-04-14 14:42 45.84211 22.27937 5096 ft 124 kts 88°
2026-04-14 14:42 45.84259 22.29176 5096 ft 125 kts 88°
2026-04-14 14:43 45.84306 22.30420 5096 ft 125 kts 88°
2026-04-14 14:43 45.84354 22.31668 5094 ft 125 kts 87°
2026-04-14 14:43 45.84400 22.32907 5093 ft 123 kts 88°
2026-04-14 14:43 45.84445 22.34106 5085 ft 118 kts 88°
2026-04-14 14:44 45.84489 22.35265 5080 ft 115 kts 88°
2026-04-14 14:44 45.84532 22.36401 5080 ft 113 kts 88°
2026-04-14 14:44 45.84573 22.37515 5081 ft 113 kts 87°
2026-04-14 14:44 45.84615 22.38638 5080 ft 113 kts 88°
2026-04-14 14:45 45.84657 22.39763 5083 ft 113 kts 88°
2026-04-14 14:45 45.84698 22.40891 5076 ft 113 kts 88°
2026-04-14 14:45 45.84741 22.42019 5077 ft 114 kts 88°
2026-04-14 14:45 45.84783 22.43159 5086 ft 115 kts 88°
2026-04-14 14:46 45.84826 22.44307 5085 ft 115 kts 87°
2026-04-14 14:46 45.84868 22.45451 5085 ft 115 kts 88°
2026-04-14 14:46 45.84910 22.46596 5084 ft 115 kts 88°
2026-04-14 14:46 45.84952 22.47733 5082 ft 114 kts 88°
2026-04-14 14:47 45.84993 22.48856 5083 ft 112 kts 88°
2026-04-14 14:47 45.85033 22.49975 5087 ft 113 kts 88°
2026-04-14 14:47 45.85074 22.51107 5086 ft 114 kts 88°
2026-04-14 14:47 45.85115 22.52238 5086 ft 113 kts 88°
2026-04-14 14:48 45.85154 22.53352 5085 ft 114 kts 88°
2026-04-14 14:48 45.85196 22.54488 5083 ft 114 kts 88°
2026-04-14 14:48 45.85237 22.55618 5085 ft 113 kts 88°
2026-04-14 14:48 45.85277 22.56751 5089 ft 114 kts 88°
2026-04-14 14:49 45.85318 22.57899 5092 ft 116 kts 88°
2026-04-14 14:49 45.85359 22.59059 5092 ft 117 kts 88°
2026-04-14 14:49 45.85401 22.60217 5091 ft 116 kts 88°
2026-04-14 14:49 45.85440 22.61370 5089 ft 115 kts 88°
2026-04-14 14:50 45.85481 22.62508 5086 ft 114 kts 88°
2026-04-14 14:50 45.85522 22.63654 5090 ft 115 kts 89°
2026-04-14 14:50 45.85562 22.64801 5083 ft 115 kts 88°
2026-04-14 14:50 45.85602 22.65946 5087 ft 114 kts 88°
2026-04-14 14:51 45.85641 22.67072 5086 ft 115 kts 88°
2026-04-14 14:51 45.85682 22.68217 5084 ft 115 kts 89°
2026-04-14 14:51 45.85721 22.69358 5079 ft 114 kts 88°
2026-04-14 14:51 45.85760 22.70490 5085 ft 114 kts 89°
2026-04-14 14:52 45.85799 22.71626 5091 ft 115 kts 88°
2026-04-14 14:52 45.85839 22.72773 5092 ft 115 kts 88°
2026-04-14 14:52 45.85878 22.73934 5094 ft 117 kts 88°
2026-04-14 14:52 45.85917 22.75104 5095 ft 118 kts 88°
2026-04-14 14:53 45.85958 22.76270 5089 ft 116 kts 89°
2026-04-14 14:53 45.85993 22.77348 5064 ft 98 kts 89°
2026-04-14 14:53 45.86024 22.78252 5042 ft 81 kts 89°
2026-04-14 14:53 45.86051 22.79012 4979 ft 73 kts 89°
2026-04-14 14:54 45.86080 22.79753 4857 ft 87 kts 89°
2026-04-14 14:54 45.86137 22.80781 4604 ft 114 kts 87°
2026-04-14 14:54 45.86196 22.81897 4534 ft 112 kts 88°
2026-04-14 14:54 45.86262 22.83008 3330 ft 120 kts 86°
2026-04-14 14:55 45.86303 22.84599 2509 ft 147 kts 92°
2026-04-14 14:55 45.86307 22.85941 2318 ft 131 kts 91°
2026-04-14 14:55 45.86327 22.87278 1900 ft 137 kts 90°
2026-04-14 14:55 45.86354 22.88611 1627 ft 132 kts 93°
2026-04-14 14:56 45.86437 22.91056 1459 ft 109 kts 89°
2026-04-14 14:56 45.86481 22.92157 1476 ft 114 kts 90°
2026-04-14 14:56 45.86523 22.93312 1484 ft 117 kts 89°
2026-04-14 14:57 45.86564 22.94489 1481 ft 118 kts 89°
2026-04-14 14:57 45.86578 22.95643 1519 ft 111 kts 113°
2026-04-14 14:57 45.86059 22.96430 1647 ft 110 kts 135°
2026-04-14 14:57 45.85522 22.97188 1732 ft 108 kts 132°
2026-04-14 14:58 45.84990 22.98000 1690 ft 114 kts 131°
2026-04-14 14:58 45.84747 22.98852 1757 ft 92 kts 60°
2026-04-14 14:58 45.85246 22.98559 1472 ft 102 kts 276°
2026-04-14 14:58 45.85830 22.98320 1077 ft 97 kts
2026-04-14 14:59 45.86339 22.98030 1069 ft 75 kts 320°
2026-04-14 14:59 45.86708 22.97417 1091 ft 87 kts 307°
2026-04-14 14:59 45.87089 22.96674 1166 ft 94 kts 302°
2026-04-14 14:59 45.87409 22.95879 1190 ft 92 kts 298°
2026-04-14 15:00 45.87721 22.95096 1286 ft 94 kts 298°
2026-04-14 15:00 45.88009 22.94261 1323 ft 96 kts 291°
2026-04-14 15:00 45.87826 22.93987 1208 ft 86 kts 108°
2026-04-14 15:00 45.87553 22.94774 977 ft 88 kts 127°
2026-04-14 15:01 45.87191 22.95462 799 ft 85 kts 130°
2026-04-14 15:01 45.86842 22.96125 645 ft 79 kts 125°
2026-04-14 15:01 45.86571 22.96670 621 ft 50 kts 126°
2026-04-14 15:01 45.86327 22.97179 677 ft 74 kts 122°
2026-04-14 15:02 45.86034 22.97904 816 ft 86 kts 118°
2026-04-14 15:02 45.85759 22.98735 1030 ft 94 kts 114°
2026-04-14 15:02 45.85631 22.99622 1269 ft 95 kts 57°
2026-04-14 15:02 45.86325 22.99916 1391 ft 114 kts 12°
2026-04-14 15:03 45.87002 22.99425 1461 ft 131 kts 295°
2026-04-14 15:03 45.87350 22.98201 1498 ft 138 kts 291°
2026-04-14 15:03 45.87670 22.96908 1515 ft 137 kts 288°
2026-04-14 15:03 45.87966 22.95668 1640 ft 132 kts 287°
2026-04-14 15:04 45.88268 22.94410 1674 ft 134 kts 290°
2026-04-14 15:04 45.88420 22.93121 1657 ft 122 kts 236°
2026-04-14 15:04 45.87801 22.93038 1562 ft 100 kts 119°
2026-04-14 15:04 45.87629 22.94059 1131 ft 97 kts 111°
2026-04-14 15:05 45.87378 22.94901 922 ft 88 kts 118°
2026-04-14 15:05 45.87062 22.95639 708 ft 83 kts 124°
2026-04-14 15:05 45.86779 22.96242 632 ft 63 kts 123°
2026-04-14 15:05 45.86574 22.96681 620 ft 40 kts 124°
2026-04-14 15:06 45.86474 22.96829 631 ft 5 kts 171°
2026-04-14 15:06 45.86467 22.96831 630 ft 0 kts 169°
2026-04-14 15:06 45.86447 22.96827 632 ft 10 kts 210°
2026-04-14 15:06 45.86422 22.96813 631 ft 2 kts 24°
2026-04-14 15:07 45.86425 22.96817 634 ft 0 kts 32°